TimeMST,TemperatureF,Dew PointF,Humidity,Sea Level PressureIn,VisibilityMPH,Wind Direction,Wind SpeedMPH,Gust SpeedMPH,PrecipitationIn,Events,Conditions,WindDirDegrees,DateUTC
12:58 AM,30.0,26.1,85,30.41,10.0,SSE,5.8,-,N/A,,Clear,150,2013-02-03 07:58:00
1:58 AM,29.7,25.7,85,30.39,10.0,ESE,2.3,-,N/A,,Clear,120,2013-02-03 08:58:00
2:58 AM,27.3,24.4,89,30.39,10.0,East,3.5,-,N/A,,Clear,100,2013-02-03 09:58:00
3:58 AM,27.7,24.8,89,30.36,10.0,ENE,3.5,-,N/A,,Clear,60,2013-02-03 10:58:00
4:58 AM,27.5,24.4,88,30.36,10.0,ENE,4.6,-,N/A,,Clear,60,2013-02-03 11:58:00
5:58 AM,27.0,24.1,89,30.36,10.0,ENE,3.5,-,N/A,,Overcast,60,2013-02-03 12:58:00
6:58 AM,25.9,23.2,90,30.36,10.0,East,3.5,-,N/A,,Overcast,80,2013-02-03 13:58:00
7:03 AM,26.6,23.0,86,30.28,10.0,East,2.3,-,N/A,,Overcast,80,2013-02-03 14:03:00
7:13 AM,24.8,23.0,93,30.28,10.0,East,2.3,-,N/A,,Overcast,90,2013-02-03 14:13:00
7:38 AM,26.6,24.8,93,30.28,10.0,ENE,1.2,-,N/A,,Mostly Cloudy,60,2013-02-03 14:38:00
7:43 AM,26.6,24.8,93,30.28,10.0,NE,2.3,-,N/A,,Scattered Clouds,50,2013-02-03 14:43:00
7:58 AM,26.1,23.7,91,30.37,10.0,NE,2.3,-,N/A,,Scattered Clouds,40,2013-02-03 14:58:00
8:58 AM,26.6,23.9,90,30.39,10.0,NNW,3.5,-,N/A,,Clear,330,2013-02-03 15:58:00
9:58 AM,31.3,25.5,79,30.39,10.0,East,3.5,-,N/A,,Clear,80,2013-02-03 16:58:00
10:58 AM,33.8,27.0,76,30.35,10.0,ESE,6.9,-,N/A,,Clear,120,2013-02-03 17:58:00
11:33 AM,32.0,26.6,80,30.30,10.0,South,3.5,-,N/A,,Mostly Cloudy,170,2013-02-03 18:33:00
11:53 AM,33.8,28.4,81,30.30,10.0,Variable,2.3,-,N/A,,Scattered Clouds,0,2013-02-03 18:53:00
11:58 AM,34.3,27.7,77,30.37,10.0,East,3.5,-,N/A,,Mostly Cloudy,80,2013-02-03 18:58:00
12:03 PM,33.8,26.6,75,30.30,10.0,East,2.3,-,N/A,,Scattered Clouds,80,2013-02-03 19:03:00
12:58 PM,36.9,27.1,68,30.33,10.0,SSW,3.5,-,N/A,,Partly Cloudy,200,2013-02-03 19:58:00
1:13 PM,35.6,28.4,75,30.27,10.0,Variable,3.5,-,N/A,,Mostly Cloudy,0,2013-02-03 20:13:00
1:58 PM,36.5,28.6,73,30.33,10.0,WSW,8.1,-,N/A,,Overcast,250,2013-02-03 20:58:00
2:23 PM,35.6,28.4,75,30.26,10.0,West,8.1,-,N/A,,Scattered Clouds,260,2013-02-03 21:23:00
2:58 PM,37.2,29.5,74,30.30,10.0,WSW,8.1,-,N/A,,Clear,240,2013-02-03 21:58:00
3:08 PM,37.4,28.4,70,30.25,10.0,West,6.9,-,N/A,,Mostly Cloudy,260,2013-02-03 22:08:00
3:33 PM,37.4,30.2,75,30.25,10.0,NW,8.1,-,N/A,,Overcast,310,2013-02-03 22:33:00
3:58 PM,36.1,29.3,76,30.32,10.0,NW,8.1,-,N/A,,Overcast,310,2013-02-03 22:58:00
4:58 PM,35.4,29.5,79,30.31,10.0,NW,5.8,-,N/A,,Overcast,320,2013-02-03 23:58:00
5:58 PM,33.1,28.2,82,30.32,10.0,NW,8.1,-,N/A,,Overcast,310,2013-02-04 00:58:00
6:03 PM,32.0,28.4,87,30.24,10.0,WNW,6.9,-,N/A,,Overcast,290,2013-02-04 01:03:00
6:38 PM,32.0,28.4,87,30.24,10.0,NW,3.5,-,N/A,,Overcast,310,2013-02-04 01:38:00
6:58 PM,31.5,28.0,87,30.32,10.0,WNW,6.9,-,N/A,,Overcast,290,2013-02-04 01:58:00
7:33 PM,32.0,28.4,87,30.25,10.0,Variable,3.5,-,N/A,,Overcast,0,2013-02-04 02:33:00
7:58 PM,30.7,27.9,89,30.33,10.0,NNE,5.8,-,N/A,,Overcast,20,2013-02-04 02:58:00
8:18 PM,32.0,28.4,87,30.24,10.0,North,4.6,-,N/A,,Overcast,350,2013-02-04 03:18:00
8:58 PM,30.0,27.7,91,30.32,10.0,WNW,4.6,-,N/A,,Overcast,300,2013-02-04 03:58:00
9:58 PM,30.0,28.0,92,30.31,10.0,Calm,Calm,-,N/A,,Overcast,0,2013-02-04 04:58:00
10:53 PM,30.2,28.4,93,30.25,6.0,NE,5.8,-,N/A,,Overcast,40,2013-02-04 05:53:00
10:58 PM,29.5,27.7,93,30.32,5.0,NE,4.6,-,N/A,,Overcast,40,2013-02-04 05:58:00
11:33 PM,28.4,26.6,93,30.25,2.0,North,5.8,-,N/A,,Overcast,10,2013-02-04 06:33:00
11:38 PM,28.4,26.6,93,30.25,1.5,NNE,5.8,-,N/A,,Overcast,20,2013-02-04 06:38:00
11:43 PM,28.4,26.6,93,30.25,1.2,NE,4.6,-,N/A,,Overcast,40,2013-02-04 06:43:00
11:58 PM,28.6,27.3,95,30.31,1.2,ENE,4.6,-,N/A,,Overcast,60,2013-02-04 06:58:00